User: anonymous   Login
Location: French Creek State Gamelands
(40.1750°N, 75.7969°W)
Time: 04:08:23
(UTC-04:00)
Language:

ISS - Orbit

View from above orbital plane
View from above orbital plane
View from above satellite
View from above satellite

Ground track
Ground track

The orbit data is extracted from the following two-line orbital elements,

1 25544U 98067A   16178.23090492  .00004004  00000-0  66351-4 0  9995
2 25544  51.6445  12.9149 0000720  26.9928 125.4955 15.54682636  6393
Epoch (UTC): 26 June 2016 05:32:30
Eccentricity: 0.0000720
inclination: 51.6445°
perigee height: 402 km
apogee height: 403 km
right ascension of ascending node: 12.9149°
argument of perigee: 26.9928°
revolutions per day: 15.54682636
mean anomaly at epoch: 125.4955°
orbit number at epoch: 639

The dashed part of the orbit path shows where the satellite is in the earth's shadow,  

DLR